Regional Weather Roundup
Issued by NWS

Home | Current Version | Previous Version | Graphics & Text | Print | Product List | Glossary On
Versions: 1 2 3 4 5 6 7 8 9 10 11 12 13 14 15 16 17 18 19 20 21 22 23 24 25 26 27 28 29 30 31 32 33 34 35 36 37 38 39 40 41 42 43 44 45 46 47 48 49 50
000
ASUS43 KLOT 182310
RWRIL

ILLINOIS REGIONAL WEATHER ROUNDUP
NATIONAL WEATHER SERVICE CHICAGO/ROMEOVILLE IL
600 PM CDT THU SEP 18 2014

NOTE: "FAIR" INDICATES FEW OR NO CLOUDS BELOW 12,000 FEET WITH NO
SIGNIFICANT WEATHER AND/OR OBSTRUCTIONS TO VISIBILITY.

* THESE STATIONS ARE NOT UNDER NWS QUALITY CONTROL. THEY ALSO MAY NOT
  REPORT WEATHER SUCH AS PRECIPITATION OR FOG.

ILZ001-002-007-009-015-016-024-190000-
NORTHWEST ILLINOIS

CITY           SKY/WX    TMP DP  RH WIND       PRES   REMARKS
MOLINE         SUNNY     71  53  52 E10       30.05F
STERLING*      SUNNY     70  50  49 SE7       30.08S
SAVANNA*       SUNNY     70  51  50 E7        30.07S
$$

ILZ003-004-008-010-011-017-018-190000-
NORTH CENTRAL ILLINOIS

CITY           SKY/WX    TMP DP  RH WIND       PRES   REMARKS
ROCKFORD       MOSUNNY   68  52  56 E9        30.11S
FREEPORT*      SUNNY     66  52  61 E5        30.12S
ROCHELLE*      SUNNY     69  52  55 E7        30.10R
DE KALB*       MOSUNNY   64  53  66 E9        30.11S
PERU*          SUNNY     71  50  47 SE7       30.08S
$$

ILZ005-006-012>014-019>023-190000-
NORTHEAST ILLINOIS

CITY           SKY/WX    TMP DP  RH WIND       PRES   REMARKS
CHICAGO-OHARE  PTCLDY    66  54  65 NE10      30.12S
CHICAGO-MIDWAY PTCLDY    66  55  67 NE9       30.11S
AURORA         CLEAR     68  53  58 E12       30.10S
LANSING*       PTCLDY    64  55  75 NE9       30.11S
JOLIET*        CLEAR     66  52  59 NE10      30.11R
WAUKEGAN       CLOUDY    58  52  80 N6        30.13S
DUPAGE AIRPORT CLEAR     66  54  65 NE10      30.11R
KANKAKEE*      CLEAR     68  53  59 NE9       30.09R
WHEELING       PTCLDY    61  54  77 N7        30.15R
MORRIS*        CLEAR     69  52  53 E6        30.09R
ROMEOVILLE*    CLEAR     66  53  62 NE10      30.10R
NORTHERLY ISL    N/A     62  55  77 N8          N/A
$$

LMZ740>746-190000-
SOUTHERN LAKE MICHIGAN

STATION/POSITION SKY/WX   TEMP    WIND        PRES    VSBY  WAVE
                          AIR SEA DIR/SP/G                  HT/PER
                          (F)     (DEG/KT/KT) (MB)    (MI)  (FT/S)
SOUTHERN BUOY              61 65   30/ 10/ 12 1020.2F         2/ 6
WAUKEGAN HARBOR            58      10/ 10/ 14   N/A
HARRISON CRIB              60     360/ 12/ 13   N/A
BURNHAM HARBOR             61     360/ 10/ 12   N/A
CALUMET HARBOR             62     360/  9/ 12 1018.6R
MICHIGAN CITY              63      10/ 11/ 13   N/A
MICHIGAN CITY 6N           64 65   30/ 10/ 14   N/A           3/ 2
ST. JOSEPH                 64 66   20/ 12/ 16   N/A           2/ 2
$$

ILZ025>027-034>036-040-047-049-050-058-095>099-190000-
WEST-CENTRAL ILLINOIS

CITY           SKY/WX    TMP DP  RH WIND       PRES   REMARKS
QUINCY         MOSUNNY   73  50  44 E7        30.03S
GALESBURG*     SUNNY     73  53  49 E6        30.05F
MACOMB*        SUNNY     72  50  45 E9        30.06S
JACKSONVILLE*  SUNNY     75  51  42 E8        30.04S
PITTSFIELD*    SUNNY     72  54  52 CALM      30.04S
$$

ILZ028>032-037-038-041>044-048-051>054-059>061-190000-
CENTRAL ILLINOIS

CITY           SKY/WX    TMP DP  RH WIND       PRES   REMARKS
PONTIAC        SUNNY     73  46  38 E6        30.08R
DECATUR        SUNNY     70  49  47 NE8       30.05S
PEORIA         SUNNY     72  49  44 E5        30.06S
LACON*         SUNNY     71  48  44 E5        30.06S
LINCOLN*       SUNNY     73  48  42 NE6       30.03R
SPRINGFIELD    SUNNY     73  53  49 NE7       30.04S
TAYLORVILLE    SUNNY     72  50  46 E6        30.03S
$$

ILZ033-039-045-046-055>057-062-063-190000-
EAST-CENTRAL ILLINOIS

CITY           SKY/WX    TMP DP  RH WIND       PRES   REMARKS
CHAMPAIGN      SUNNY     69  47  45 E7        30.07R
DANVILLE*      CLEAR     70  48  44 E5        30.04S
RANTOUL*       CLEAR     73  40  30 E7        30.08R
MATTOON        SUNNY     71  46  40 NE6       30.04S
PARIS*         CLEAR     71  45  39 E3        30.06S
$$

ILZ079-100>102-190000-
SOUTHWEST ILLINOIS

CITY           SKY/WX    TMP DP  RH WIND       PRES   REMARKS
ALTON          SUNNY     72  48  43 E12       30.02F
BELLEVILLE     SUNNY     73  55  53 NE7       30.01S
CAHOKIA*       SUNNY     74  55  51 E8        30.01S
SPARTA*        SUNNY     72  53  52 E8        30.02R
$$

ILZ064>066-069>071-074>076-080>082-084>086-088>090-092>094-190000-
SOUTH-CENTRAL ILLINOIS

CITY           SKY/WX    TMP DP  RH WIND       PRES   REMARKS
CARBONDALE     SUNNY     72  54  53 E5        30.00S
CAIRO*         MOSUNNY   74  60  59 NE6       29.98R
EFFINGHAM*     SUNNY     73  50  45 CALM      30.03S
MARION         SUNNY     73  55  53 NE6       30.01S
MT. VERNON     SUNNY     72  54  53 NE6       30.02S
CENTRALIA*     SUNNY     72  53  51 NE5       30.02S
SALEM*         SUNNY     73  56  54 E5        30.03R
METROPOLIS*    CLOUDY    75  60  59 NE3       29.98S
$$

ILZ067-068-072-073-078-083-087-091-190000-
SOUTHEAST ILLINOIS

CITY           SKY/WX    TMP DP  RH WIND       PRES   REMARKS
LAWRENCEVILLE  CLEAR     73  53  49 E7        30.03S
FLORA*         SUNNY     73  52  48 NE7       30.02S
FAIRFIELD*     SUNNY    N/A N/A N/A CALM      30.01S
HARRISBURG*    SUNNY     73  53  50 NE6       30.02R
ROBINSON*      CLEAR     73  55  53 E7        30.04F
CARMI*         SUNNY     74  55  50 NE6       30.01R
$$

ABBREVIATIONS USED IN REMARKS
   TC - TEMPERATURE IN CELSIUS
  WCI - WIND CHILL INDEX
   HX - HEAT INDEX
  VSB - VISIBILITY
$$



USA.gov is the U.S. government's official web portal to all federal, state and local government web resources and services.